Regional Weather Roundup
Issued by NWS

Home | Current Version | Previous Version | Text Only | Print | Product List | Glossary Off
Versions: 1 2 3 4 5 6 7 8 9 10 11 12 13 14 15 16 17 18 19 20 21 22 23 24 25 26 27 28 29 30 31 32 33 34 35 36 37 38 39 40 41 42 43 44 45 46 47 48 49 50

000
ASUS45 KTFX 210419
RWRMT
MONTANA HOURLY WEATHER ROUNDUP
NATIONAL WEATHER SERVICE GREAT FALLS MT
1019 PM MDT SUN APR 20 2014

NOTE: "FAIR" INDICATES FEW OR NO CLOUDS BELOW 12000 FEET WITH NO
SIGNIFICANT WEATHER AND/OR OBSTRUCTIONS TO VISIBILITY.

* THESE STATIONS ARE NOT UNDER NWS QUALITY CONTROL. THEY DO NOT
   REPORT WEATHER SUCH AS PRECIPITATION OR FOG.

MTZ001>007-043-210500-
WEST OF THE DIVIDE
CITY           SKY/WX    TMP DP  RH WIND       PRES   REMARKS
KALISPELL      CLOUDY    45  25  45 CALM      30.22R
MISSOULA       PTCLDY    45  21  38 N7        30.24R
BUTTE          PTCLDY    43  14  31 CALM      30.24R
MULLAN PASS    MOCLDY    34  21  59 S6        30.23S WCI  29
* ESSEX        N/A       35  28  76 N/A        N/A
* LINCOLN      N/A       42  17  36 SW3G10     N/A
* LOOKOUT PASS N/A       36  27  70 N/A        N/A
* POLSON       N/A       42  19  40 N/A        N/A
* RONAN APT    MOCLDY    46  34  63 N/A        N/A
* SEELEY LAKE  N/A       37  24  59 NE2        N/A
* THOMP F APT  MOCLDY    45  14  28 S1G15      N/A
* YAAK HILL    N/A       46  24  42 N/A        N/A
$$

MTZ008-052>055-210500-
SOUTHWEST MONTANA
CITY           SKY/WX    TMP DP  RH WIND       PRES   REMARKS
BOZEMAN        MOCLDY    46  18  33 W5        30.21R
DILLON         PTCLDY    46  14  27 E9        30.21R
W YELLOWSTONE  N/A       39  24  55 SW3        N/A
* THREE FORKS  MOCLDY    54  16  22 N6         N/A
* BOULDER HILL N/A       39  13  34 N/A        N/A
* MONIDA PASS  N/A       37  14  39 SW8        N/A   WCI  31
* RAYNOLDS PAS N/A       40  15  36 NE1        N/A
* WHITEHALL    N/A       49  11  21 W2G10      N/A
* WISE RIVER   N/A       39  17  41 W4G10      N/A
$$

MTZ009>010-012-014-046-048-049-054-210500-
EAST SLOPES AND CENTRAL MONTANA
CITY           SKY/WX    TMP DP  RH WIND       PRES   REMARKS
CUT BANK       MOCLDY    43  25  49 SW10      30.16R
GREAT FALLS    PTCLDY    37  18  46 W6        30.19R WCI  32
HELENA         PTCLDY    50  16  26 E5        30.21R
MALMSTROM AFB  PTCLDY    50  18  28 W3        30.17R
* CONRAD       PTCLDY    39  23  53 N/A        N/A
* DEARBORN     N/A       47  18  31 SW4        N/A
* MONARCH      N/A       39   8  27 SW6        N/A   WCI  35
* PENDROY      N/A       42  18  38 NW12       N/A
* ROGERS PASS  N/A       43  13  29 E11G18     N/A
* SAINT MARY   N/A       43  21  42 S6G16      N/A
* SWEET GRASS  N/A       42  22  45 SW11       N/A
* WHITE SULPH  N/A       43  14  31 NW8        N/A
$$

MTZ011-013-016-021-035-040-045-047-050-051-210500-
NORTH CENTRAL MONTANA
CITY           SKY/WX    TMP DP  RH WIND       PRES   REMARKS
HAVRE          CLEAR     43  21  42 NW8       30.13R
LEWISTOWN      PTCLDY    43  18  37 NW7       30.18R
* CHINOOK      CLEAR     45  23  42 SW7       30.12R
* FORT BENTON  PTCLDY    48  19  32 W7        30.19R
* MALTA APT    CLEAR     43  23  45 W6        30.07R
* CHESTER      N/A       47  20  34 W11G16     N/A
* DENTON       N/A       38  14  37 W6         N/A   WCI  33
* GEYSER       N/A       35  15  44 SW9        N/A   WCI  28
* JUDITH GAP   N/A       39  17  41 NW9        N/A   WCI  33
* LOMA         N/A       51  20  29 W11        N/A
$$

MTZ017>020-022>027-061-062-210500-
NORTHEAST MONTANA
CITY           SKY/WX    TMP DP  RH WIND       PRES   REMARKS
GLASGOW        CLEAR     48  27  44 NW5       30.09R
GLENDIVE       CLEAR     46  25  44 NW3       30.11R
JORDAN         CLEAR     39  27  62 CALM      30.12R
SIDNEY         CLEAR     45  27  49 NW6       30.08R
WOLF POINT     CLEAR     46  25  44 NW8       30.08R
* BEAVER HILL  N/A       48  23  37 W9         N/A
* CIRCLE       N/A       51  29  43 N/A        N/A
* LINDSAY DVD  N/A       40  24  53 W6         N/A   WCI  36
* NAVAJO       N/A       46  33  61 NW14G19    N/A
$$

MTZ028>042-056>058-210500-
SOUTHCENTRAL AND SOUTHEAST MONTANA
CITY           SKY/WX    TMP DP  RH WIND       PRES   REMARKS
BAKER          CLEAR     46  21  37 NW8       30.12R
BILLINGS       PTCLDY    52  16  24 NE7       30.18R
LIVINGSTON     PTCLDY    48  18  30 VRB6      30.20R
MILES CITY     CLEAR     46  23  40 NW7       30.13R
* LAUREL APT   PTCLDY    50  16  26 NW7        N/A
* ROUNDUP APT  PTCLDY    48  12  23 N/A        N/A
* HYSHAM       N/A       53  14  21 NW1        N/A
* LAME DEER    N/A       48  16  28 N8         N/A
* REED POINT   N/A       49  16  27 SW4        N/A
* ROSCOE HILL  N/A       49   9  20 E2         N/A
$$

REGIONAL REPORTS...DAKOTAS
CITY           SKY/WX    TMP DP  RH WIND       PRES   REMARKS
WILLISTON      CLEAR     46  28  50 W10       30.02R
DICKINSON      CLEAR     41  23  49 NW6       30.04R
CROSBY         CLEAR     45  36  71 W15       30.00R
TIOGA          CLEAR     46  30  54 W14       30.03R
WATFORD CITY   CLEAR     39  27  62 W7        30.02R WCI  34
BISMARCK       CLEAR     52  27  38 W5        30.01R
GRAND FORKS    CLOUDY    55  37  51 W8        29.88R
FARGO          PTCLDY    63  34  34 SW13G31   29.89R
BUFFALO SD     CLEAR     48  19  32 NW12      30.06R
RAPID CITY     CLEAR     46  28  50 N10       30.10R
$$

REGIONAL REPORTS...WYOMING/IDAHO/WASHINGTON
CITY           SKY/WX    TMP DP  RH WIND       PRES   REMARKS
GILLETTE       CLEAR     43  23  45 N6        30.19R
SHERIDAN       CLEAR     46  25  44 W14       30.19R
CODY           PTCLDY    48  21  34 NW9       30.21R
YELLOWSTONE LA PTCLDY    28  25  89 CALM      30.30R
SALMON         PTCLDY    48  19  32 S3        30.21R
MULLAN PASS    MOCLDY    34  21  59 S6        30.23S WCI  29
SAND POINT     CLEAR     41  32  70 CALM      30.22R
SPOKANE        FAIR      48  30  50 CALM      30.20R
$$

REGIONAL REPORTS...ALBERTA
CITY           SKY/WX    TMP DP  RH WIND       PRES   REMARKS
CALGARY        PTCLDY    45  16  31 W8        30.08R
LETHBRIDGE     CLOUDY    48  23  37 W21G29    30.11S
MEDICINE HAT   FAIR      46  30  54 W6        30.10R
EDMONTON       FAIR      43  32  65 S7        30.03R
WATERTON GATE  N/A       45  18  34 SW15G25    N/A
CARDSTON       N/A       45  23  42 W10        N/A
MILK RIVER     N/A       43  23  45 W13        N/A
$$

REGIONAL REPORTS...SASKATCHEWAN
CITY           SKY/WX    TMP DP  RH WIND       PRES   REMARKS
SWIFT CURRENT  CLEAR     39  34  82 N5        30.08R WCI  35
REGINA         MOCLDY    36  36 100 NW6       30.02R WCI  31
VAL MARIE      N/A       37  25  62 N6         N/A   WCI  32
ASSINIBOIA     N/A       39  34  82 W12        N/A   WCI  32
CORONACH       N/A       41  34  76 NW12       N/A

$$




USA.gov is the U.S. government's official web portal to all federal, state and local government web resources and services.